Location: ??????
(56.0120°N, 39.1740°E)
Time: 20:55:15
(UTC+00:00)

CZ-2D R/B - Pass Details

Date: 14 April 2026
Orbit: 789 x 842 km, 98.9° (Epoch: 11 May)

Event Time Altitude Azimuth Distance (km) Brightness Sun altitude
Rises 23:45:15 0° 20° (NNE) 3,302 6.7 -18.0°
Reaches altitude 10° 23:47:44 10° 28° (NNE) 2,371 5.8 -17.8°
Maximum altitude 23:52:39 41° 98° (E) 1,155 3.1 -17.4°
Enters shadow 23:57:21 11° 167° (SSE) 2,292 4.1 -17.0°
